KB5DPX Weather Reports


Display with metric or nautical units.
time (UTC)temp
F
wind
direction
speed
MPH
gust
MPH
rain 1hr
in
rain 24hr
in
rain mn
in
humidity
%
barometer
mb
20260509231234 49 296 13.0 21.0 0.00 0.00 0.00 64 1006.2
20260509230735 49 338 11.0 20.0 0.00 0.00 0.00 64 1006.2
20260509230237 49 292 12.0 23.0 0.00 0.00 0.00 63 1006.0
20260509225733 49 302 10.0 23.0 0.00 0.00 0.00 62 1005.9
20260509225236 48 311 13.0 20.0 0.00 0.00 0.00 63 1005.8
20260509224720 48 299 11.0 18.0 0.00 0.00 0.00 63 1005.7
20260509224233 49 290 10.0 17.0 0.00 0.00 0.00 61 1005.6
20260509223735 49 292 10.0 20.0 0.00 0.00 0.00 60 1005.5
20260509223216 49 301 11.0 20.0 0.00 0.00 0.00 60 1005.4
20260509222722 49 294 8.0 18.0 0.00 0.00 0.00 59 1005.3
20260509222232 48 294 10.0 18.0 0.00 0.00 0.00 59 1005.4
20260509221737 49 281 7.0 16.0 0.00 0.00 0.00 57 1005.3
20260509221222 49 300 8.0 16.0 0.00 0.00 0.00 55 1005.2
20260509220735 49 296 9.0 15.0 0.00 0.00 0.00 53 1005.0
20260509220219 49 300 10.0 15.0 0.00 0.00 0.00 53 1004.9
20260509215723 50 288 5.0 15.0 0.00 0.00 0.00 53 1004.8
20260509215232 50 294 10.0 15.0 0.00 0.00 0.00 53 1004.6
20260509214737 50 310 7.0 15.0 0.00 0.00 0.00 53 1004.6
20260509214242 50 309 10.0 15.0 0.00 0.00 0.00 55 1004.6
20260509213726 50 281 9.0 16.0 0.00 0.00 0.00 55 1004.5
20260509213236 50 296 8.0 18.0 0.00 0.00 0.00 56 1004.3
20260509212730 49 270 10.0 15.0 0.00 0.00 0.00 59 1004.3
20260509212240 49 290 9.0 15.0 0.00 0.00 0.00 61 1004.2
20260509211717 48 281 9.0 16.0 0.00 0.00 0.00 64 1004.2
20260509211229 48 279 10.0 16.0 0.00 0.00 0.00 65 1004.1
20260509210734 48 288 8.0 14.0 0.00 0.00 0.00 66 1004.0
20260509210239 47 274 8.0 13.0 0.00 0.00 0.00 68 1004.0
20260509205733 47 281 8.0 16.0 0.00 0.00 0.00 69 1003.8
20260509205236 47 292 8.0 15.0 0.00 0.00 0.00 70 1003.7
20260509204738 47 278 9.0 14.0 0.00 0.00 0.00 71 1003.6
20260509204218 46 273 9.0 15.0 0.00 0.00 0.00 71 1003.6
20260509203730 47 279 10.0 15.0 0.00 0.00 0.00 70 1003.5
20260509203233 48 276 7.0 17.0 0.00 0.00 0.00 67 1003.5
20260509202728 50 281 10.0 17.0 0.00 0.00 0.00 62 1003.4
20260509202243 50 300 11.0 17.0 0.00 0.00 0.00 59 1003.0
20260509201723 49 265 10.0 19.0 0.00 0.00 0.00 62 1003.0
20260509201235 49 257 12.0 19.0 0.00 0.00 0.00 64 1003.0
20260509200734 48 273 15.0 19.0 0.00 0.00 0.00 63 1002.9
20260509200236 50 300 11.0 16.0 0.00 0.00 0.00 61 1002.7
20260509195731 51 290 11.0 16.0 0.00 0.00 0.00 57 1002.5
20260509195236 52 317 10.0 16.0 0.00 0.00 0.00 58 1002.4
20260509194738 54 323 9.0 15.0 0.00 0.00 0.00 53 1002.3
20260509194220 53 270 9.0 20.0 0.00 0.00 0.00 52 1002.3
20260509193733 53 298 12.0 28.0 0.00 0.00 0.00 52 1002.2
20260509193217 54 268 16.0 28.0 0.00 0.00 0.00 50 1002.2
20260509192738 54 282 17.0 23.0 0.00 0.00 0.00 50 1002.1
20260509192241 55 272 12.0 23.0 0.00 0.00 0.00 48 1001.9
20260509191725 55 274 15.0 21.0 0.00 0.00 0.00 48 1001.8
20260509191242 55 290 14.0 21.0 0.00 0.00 0.00 48 1001.8
20260509190725 55 272 13.0 20.0 0.00 0.00 0.00 46 1001.6
20260509190241 56 271 10.0 16.0 0.00 0.00 0.00 45 1001.6
20260509185737 55 271 10.0 20.0 0.00 0.00 0.00 49 1001.5
20260509185236 55 287 12.0 24.0 0.00 0.00 0.00 50 1001.5
20260509184718 55 262 15.0 24.0 0.00 0.00 0.00 50 1001.4
20260509184232 55 265 14.0 24.0 0.00 0.00 0.00 49 1001.4
20260509183733 55 254 12.0 23.0 0.00 0.00 0.00 50 1001.3
20260509183218 54 254 14.0 21.0 0.00 0.00 0.00 51 1001.2
20260509182724 54 280 11.0 20.0 0.00 0.00 0.00 51 1001.1
20260509182237 54 277 10.0 25.0 0.00 0.00 0.00 52 1001.1
20260509181721 54 260 16.0 25.0 0.00 0.00 0.00 53 1001.0
20260509181230 54 274 14.0 23.0 0.00 0.00 0.00 53 1000.9
20260509180716 54 271 13.0 27.0 0.00 0.00 0.00 54 1000.9
20260509180230 54 290 16.0 27.0 0.00 0.00 0.00 53 1000.9
20260509175727 55 261 14.0 22.0 0.00 0.00 0.00 54 1000.8
20260509175239 55 248 16.0 25.0 0.00 0.00 0.00 53 1000.7
20260509174724 55 267 13.0 25.0 0.00 0.00 0.00 53 1000.7
20260509174237 55 276 13.0 26.0 0.00 0.00 0.00 54 1000.6
20260509173737 55 275 17.0 26.0 0.00 0.00 0.00 53 1000.5
20260509173237 55 285 15.0 24.0 0.00 0.00 0.00 54 1000.4
20260509172734 55 298 14.0 24.0 0.00 0.00 0.00 54 1000.3
20260509172237 55 254 14.0 21.0 0.00 0.00 0.00 55 1000.3
20260509171721 55 248 14.0 20.0 0.00 0.00 0.00 55 1000.2
20260509171234 55 273 13.0 20.0 0.00 0.00 0.00 55 1000.2
20260509170738 55 286 14.0 19.0 0.00 0.00 0.00 56 1000.1
20260509170222 55 267 13.0 19.0 0.00 0.00 0.00 57 1000.0
20260509165742 55 294 11.0 22.0 0.00 0.00 0.00 58 999.9
20260509165227 54 290 12.0 24.0 0.00 0.00 0.00 59 999.9
20260509164731 54 252 12.0 24.0 0.00 0.00 0.00 60 1000.0
20260509164216 54 248 14.0 22.0 0.00 0.00 0.00 61 999.9
20260509163729 54 252 15.0 23.0 0.00 0.00 0.00 63 999.8
20260509163241 54 243 14.0 23.0 0.00 0.00 0.00 62 999.8
20260509162718 53 259 11.0 17.0 0.00 0.00 0.00 63 999.7
20260509162227 53 252 8.0 19.0 0.00 0.00 0.00 65 999.6
20260509161732 52 271 11.0 18.0 0.00 0.00 0.00 66 999.6
20260509161239 52 212 11.0 17.0 0.00 0.00 0.00 65 999.6
20260509160725 52 257 11.0 17.0 0.00 0.00 0.00 65 999.5
20260509160240 52 239 10.0 18.0 0.00 0.00 0.00 66 999.4
20260509155736 52 251 13.0 20.0 0.00 0.00 0.00 67 999.4
20260509155221 52 255 13.0 20.0 0.00 0.00 0.00 68 999.4
20260509154716 52 263 11.0 19.0 0.00 0.00 0.00 67 999.3
20260509154227 52 248 12.0 17.0 0.00 0.00 0.00 68 999.3
20260509153734 52 285 8.0 18.0 0.00 0.00 0.00 69 999.1
20260509153239 52 260 11.0 18.0 0.00 0.00 0.00 68 999.1
20260509152735 52 233 11.0 16.0 0.00 0.00 0.00 69 999.2
20260509152221 52 257 8.0 19.0 0.00 0.00 0.00 69 999.1
20260509151736 52 271 13.0 21.0 0.00 0.00 0.00 69 998.9
20260509151222 53 258 12.0 21.0 0.00 0.00 0.00 69 998.8
20260509150736 53 261 11.0 19.0 0.00 0.00 0.00 70 998.6
20260509150239 54 269 13.0 20.0 0.00 0.00 0.00 70 998.6
20260509145736 55 245 14.0 20.0 0.00 0.00 0.00 70 998.3
20260509145242 55 246 9.0 18.0 0.00 0.00 0.00 70 998.3
20260509144727 55 263 10.0 21.0 0.00 0.00 0.00 69 998.1
20260509144242 56 242 12.0 21.0 0.00 0.00 0.00 69 998.3
20260509143728 56 244 14.0 20.0 0.00 0.00 0.00 70 998.1
20260509143240 56 236 10.0 17.0 0.00 0.00 0.00 70 998.1
20260509142734 56 258 12.0 15.0 0.00 0.00 0.00 70 997.9
20260509142241 56 235 8.0 21.0 0.00 0.00 0.00 69 997.9
20260509141730 56 243 13.0 21.0 0.00 0.00 0.00 69 997.9
20260509141237 56 244 11.0 18.0 0.00 0.00 0.00 70 997.9
20260509140722 56 233 11.0 18.0 0.00 0.00 0.00 69 997.8
20260509140239 56 220 8.0 15.0 0.00 0.00 0.00 71 997.8
20260509135719 56 219 8.0 14.0 0.00 0.00 0.00 70 997.8
20260509135234 56 241 9.0 18.0 0.00 0.00 0.00 70 997.9
20260509134720 56 234 11.0 18.0 0.00 0.00 0.00 70 997.8
20260509134233 56 228 9.0 16.0 0.00 0.00 0.00 70 997.8
20260509133716 57 245 11.0 21.0 0.00 0.00 0.00 69 997.7
20260509133233 57 227 12.0 21.0 0.00 0.00 0.00 69 997.8
20260509132733 57 227 10.0 20.0 0.00 0.00 0.00 68 997.8
20260509132219 57 239 13.0 20.0 0.00 0.00 0.00 68 997.7
20260509131736 57 203 9.0 14.0 0.00 0.00 0.00 68 997.8
20260509131222 57 216 4.0 14.0 0.00 0.00 0.00 69 997.8
20260509130718 57 216 7.0 14.0 0.00 0.00 0.00 69 997.7
20260509130228 56 234 6.0 12.0 0.00 0.00 0.00 70 997.9
20260509125727 56 185 4.0 10.0 0.00 0.00 0.00 69 997.8
20260509125235 56 233 5.0 11.0 0.00 0.00 0.00 68 998.0
20260509124721 55 217 1.0 9.0 0.00 0.00 0.00 68 997.9
20260509124237 55 240 1.0 14.0 0.00 0.00 0.00 68 997.9
20260509123723 55 226 5.0 16.0 0.00 0.00 0.00 68 998.1
20260509123239 55 205 8.0 20.0 0.00 0.00 0.00 68 997.7
20260509122739 55 190 10.0 20.0 0.00 0.00 0.00 67 997.6
20260509122244 55 193 7.0 17.0 0.00 0.00 0.00 67 997.6
20260509121730 55 202 8.0 17.0 0.00 0.00 0.00 67 997.7
20260509121236 54 180 7.0 16.0 0.00 0.00 0.00 66 997.7
20260509120722 54 190 9.0 18.0 0.00 0.00 0.00 66 997.7
20260509120238 54 196 8.0 18.0 0.00 0.00 0.00 66 997.8
20260509115717 54 192 8.0 16.0 0.00 0.00 0.00 65 997.8
20260509115231 54 196 6.0 17.0 0.00 0.00 0.00 65 997.8
20260509114719 53 174 9.0 15.0 0.00 0.00 0.00 65 997.8
20260509114216 53 194 7.0 15.0 0.00 0.00 0.00 65 997.9
20260509113729 52 183 5.0 11.0 0.00 0.00 0.00 64 997.9
20260509113237 52 174 6.0 10.0 0.00 0.00 0.00 64 997.8
20260509112737 52 170 4.0 11.0 0.00 0.00 0.00 64 997.9
20260509112226 52 171 4.0 14.0 0.00 0.00 0.00 63 997.8
20260509111742 52 150 5.0 14.0 0.00 0.00 0.00 62 997.8
20260509111231 53 151 9.0 13.0 0.00 0.00 0.00 61 997.8
20260509110719 53 146 6.0 11.0 0.00 0.00 0.00 61 997.8
20260509110236 53 154 8.0 10.0 0.00 0.00 0.00 61 997.9
20260509105730 53 167 4.0 12.0 0.00 0.00 0.00 61 998.1
20260509105239 53 167 5.0 12.0 0.00 0.00 0.00 61 998.3
20260509104728 53 173 5.0 10.0 0.00 0.00 0.00 60 998.2
20260509104236 53 175 5.0 10.0 0.00 0.00 0.00 60 998.3
20260509103721 53 180 6.0 10.0 0.00 0.00 0.00 59 998.3
20260509103234 53 174 5.0 12.0 0.00 0.00 0.00 59 998.4
20260509102735 52 180 7.0 12.0 0.00 0.00 0.00 59 998.4
20260509102220 52 174 4.0 8.0 0.00 0.00 0.00 58 998.5
20260509101733 52 164 5.0 10.0 0.00 0.00 0.00 58 998.5
20260509101240 52 182 6.0 10.0 0.00 0.00 0.00 56 998.7
20260509100729 52 168 5.0 8.0 0.00 0.00 0.00 56 998.7
20260509100218 52 168 5.0 8.0 0.00 0.00 0.00 55 998.8
20260509095725 52 161 5.0 8.0 0.00 0.00 0.00 55 999.0
20260509095241 53 169 3.0 9.0 0.00 0.00 0.00 54 999.1
20260509094728 53 167 5.0 13.0 0.00 0.00 0.00 54 999.1
20260509094244 53 169 5.0 13.0 0.00 0.00 0.00 53 999.2
20260509093746 53 173 5.0 12.0 0.00 0.00 0.00 52 999.3
20260509093231 53 175 4.0 10.0 0.00 0.00 0.00 52 999.4
20260509092728 53 192 5.0 13.0 0.00 0.00 0.00 51 999.4
20260509092216 53 184 6.0 15.0 0.00 0.00 0.00 51 999.6
20260509091731 53 184 6.0 15.0 0.00 0.00 0.00 51 999.7
20260509091218 52 182 9.0 13.0 0.00 0.00 0.00 51 999.8
20260509090734 52 185 5.0 12.0 0.00 0.00 0.00 51 999.8
20260509090218 52 176 6.0 12.0 0.00 0.00 0.00 51 999.8
20260509085721 51 182 4.0 12.0 0.00 0.00 0.00 51 999.8
20260509085228 51 163 5.0 11.0 0.00 0.00 0.00 51 999.8
20260509084735 51 165 4.0 9.0 0.00 0.00 0.00 51 999.9
20260509084239 51 169 4.0 9.0 0.00 0.00 0.00 52 1000.0
20260509083726 51 162 3.0 9.0 0.00 0.00 0.00 52 1000.0
20260509083241 51 165 4.0 9.0 0.00 0.00 0.00 52 1000.0
20260509082719 50 169 6.0 9.0 0.00 0.00 0.00 53 1000.0
20260509082235 50 167 6.0 8.0 0.00 0.00 0.00 54 1000.1
20260509081736 50 159 5.0 8.0 0.00 0.00 0.00 55 1000.2
20260509081243 49 162 4.0 9.0 0.00 0.00 0.00 56 1000.3
20260509080729 49 155 6.0 11.0 0.00 0.00 0.00 56 1000.3
20260509080217 49 157 7.0 11.0 0.00 0.00 0.00 57 1000.3
20260509075724 49 160 5.0 9.0 0.00 0.00 0.00 56 1000.4
20260509075240 49 149 7.0 10.0 0.00 0.00 0.00 58 1000.4
20260509074727 49 149 7.0 11.0 0.00 0.00 0.00 57 1000.5
20260509074241 49 148 7.0 11.0 0.00 0.00 0.00 58 1000.6
20260509073743 49 147 9.0 11.0 0.00 0.00 0.00 57 1000.7
20260509073231 50 145 7.0 11.0 0.00 0.00 0.00 57 1000.8
20260509072729 49 149 7.0 11.0 0.00 0.00 0.00 57 1000.9
20260509072236 49 144 7.0 11.0 0.00 0.00 0.00 57 1001.0
20260509071723 49 145 8.0 11.0 0.00 0.00 0.00 58 1001.1
20260509071216 48 146 7.0 10.0 0.00 0.00 0.00 61 1001.2
20260509070732 49 144 6.0 10.0 0.00 0.00 0.00 61 1001.2
20260509070220 49 144 6.0 10.0 0.00 0.00 0.00 61 1001.4
20260509065744 49 144 8.0 10.0 0.00 0.00 0.00 61 1001.5
20260509065231 49 144 6.0 9.0 0.00 0.00 0.00 61 1001.6
20260509064735 48 149 0.0 3.0 0.00 0.00 0.00 63 1001.7
20260509064241 48 143 0.0 0.0 0.00 0.00 0.00 64 1001.7
20260509063725 47 141 0.0 0.0 0.00 0.00 0.00 66 1001.9
20260509063241 47 138 0.0 0.0 0.00 0.00 0.00 67 1001.9
20260509062737 47 140 0.0 0.0 0.00 0.00 0.00 68 1002.1
20260509062239 46 140 0.0 0.0 0.00 0.00 0.00 70 1002.1
20260509061728 46 138 0.0 0.0 0.00 0.00 0.00 73 1002.2
20260509061216 46 134 0.0 0.0 0.00 0.00 0.00 73 1002.2
20260509060733 46 136 0.0 0.0 0.00 0.00 0.00 74 1002.3
20260509060242 46 138 0.0 0.0 0.00 0.00 0.00 73 1002.3
20260509055742 46 139 0.0 0.0 0.00 0.00 0.00 74 1002.5
20260509055231 46 144 0.0 0.0 0.00 0.00 0.00 76 1002.6
20260509054721 46 144 0.0 0.0 0.00 0.00 0.00 77 1002.7
20260509054218 46 144 0.0 0.0 0.00 0.00 0.00 75 1002.8
20260509053732 47 144 0.0 0.0 0.00 0.00 0.00 76 1002.9
20260509053241 46 144 0.0 0.0 0.00 0.00 0.00 71 1003.1
20260509052741 46 144 0.0 0.0 0.00 0.00 0.00 75 1003.1
20260509052228 46 144 0.0 0.0 0.00 0.00 0.00 73 1003.1
20260509051742 46 144 0.0 0.0 0.00 0.00 0.00 73 1003.2
20260509051231 45 144 0.0 0.0 0.00 0.00 0.00 76 1003.1
20260509050719 44 148 0.0 0.0 0.00 0.00 0.00 78 1003.2
20260509050236 44 134 0.0 0.0 0.00 0.00 0.00 79 1003.3
20260509045717 44 251 0.0 0.0 0.00 0.00 0.00 80 1003.4
20260509045229 44 314 0.0 0.0 0.00 0.00 0.00 81 1003.4
20260509044716 44 315 0.0 0.0 0.00 0.00 0.00 81 1003.4
20260509044233 45 315 0.0 0.0 0.00 0.00 0.00 80 1003.5
20260509043721 45 315 0.0 0.0 0.00 0.00 0.00 78 1003.6
20260509043235 45 315 0.0 0.0 0.00 0.00 0.00 77 1003.7
20260509042732 45 315 0.0 0.0 0.00 0.00 0.00 79 1003.6
20260509042221 45 315 0.0 0.0 0.00 0.00 0.00 77 1003.8
20260509041718 45 315 0.0 0.0 0.00 0.00 0.00 76 1003.9
20260509041230 45 315 0.0 0.0 0.00 0.00 0.00 78 1004.0
20260509040736 45 315 0.0 0.0 0.00 0.00 0.00 79 1004.0
20260509040243 45 315 0.0 0.0 0.00 0.00 0.00 79 1004.1
20260509035732 45 315 0.0 0.0 0.00 0.00 0.00 78 1004.2
20260509035219 45 315 0.0 0.0 0.00 0.00 0.00 79 1004.2
20260509034733 45 315 0.0 0.0 0.00 0.00 0.00 77 1004.2
20260509034221 45 315 0.0 0.0 0.00 0.00 0.00 77 1004.3
20260509033719 45 315 0.0 0.0 0.00 0.00 0.00 80 1004.3
20260509033232 45 315 0.0 0.0 0.00 0.00 0.00 79 1004.3
20260509032732 45 315 0.0 0.0 0.00 0.00 0.00 78 1004.3
20260509032241 45 315 0.0 0.0 0.00 0.00 0.00 78 1004.4
20260509031730 45 315 0.0 0.0 0.00 0.00 0.00 76 1004.5
20260509031219 45 315 0.0 0.0 0.00 0.00 0.00 76 1004.5
20260509030716 45 315 0.0 0.0 0.00 0.00 0.00 77 1004.5
20260509030233 45 315 0.0 0.0 0.00 0.00 0.00 77 1004.6
20260509025733 45 315 0.0 0.0 0.00 0.00 0.00 77 1004.7
20260509025236 45 314 0.0 0.0 0.00 0.00 0.00 76 1004.6
20260509024726 45 314 0.0 0.0 0.00 0.00 0.00 75 1004.7
20260509024235 46 314 0.0 0.0 0.00 0.00 0.00 75 1004.8
20260509023743 46 314 0.0 0.0 0.00 0.00 0.00 73 1004.8
20260509023232 46 314 0.0 0.0 0.00 0.00 0.00 73 1004.9
20260509022733 46 314 0.0 0.0 0.00 0.00 0.00 70 1004.9
20260509022220 45 314 0.0 0.0 0.00 0.00 0.00 71 1004.9
20260509021718 46 314 0.0 0.0 0.00 0.00 0.00 74 1004.9
20260509021233 46 313 0.0 0.0 0.00 0.00 0.00 74 1004.9
20260509020736 46 313 0.0 0.0 0.00 0.00 0.00 73 1005.0
20260509020243 46 313 0.0 0.0 0.00 0.00 0.00 71 1005.1
20260509015743 46 313 0.0 0.0 0.00 0.00 0.00 72 1005.1
20260509015231 46 313 0.0 0.0 0.00 0.00 0.00 72 1005.0
20260509014719 46 313 0.0 0.0 0.00 0.00 0.00 71 1005.0
20260509014233 46 313 0.0 0.0 0.00 0.00 0.00 71 1005.0
20260509013720 46 313 0.0 0.0 0.00 0.00 0.00 72 1005.0
20260509013217 47 313 0.0 0.0 0.00 0.00 0.00 73 1005.0
20260509012740 46 312 0.0 0.0 0.00 0.00 0.00 69 1005.0
20260509012228 47 313 0.0 0.0 0.00 0.00 0.00 72 1005.0
20260509011736 47 313 0.0 0.0 0.00 0.00 0.00 69 1005.0
20260509011243 47 313 0.0 0.0 0.00 0.00 0.00 70 1005.0
20260509010731 47 313 0.0 0.0 0.00 0.00 0.00 67 1004.9
20260509010246 48 313 0.0 0.0 0.00 0.00 0.00 67 1005.0
20260509005723 48 313 0.0 0.0 0.00 0.00 0.00 66 1005.0
20260509005240 49 313 0.0 0.0 0.00 0.00 0.00 64 1005.0
20260509004744 49 313 0.0 0.0 0.00 0.00 0.00 62 1005.0
20260509004231 50 313 0.0 0.0 0.00 0.00 0.00 58 1005.0
20260509003718 50 313 0.0 0.0 0.00 0.00 0.00 51 1005.0
20260509003234 50 313 0.0 0.0 0.00 0.00 0.00 52 1005.2
20260509002732 50 313 0.0 0.0 0.00 0.00 0.00 52 1005.1
20260509002220 50 313 0.0 0.0 0.00 0.00 0.00 51 1005.2
20260509001733 50 313 0.0 0.0 0.00 0.00 0.00 51 1005.2
20260509001222 51 313 0.0 0.0 0.00 0.00 0.00 51 1005.2
20260509000717 51 313 0.0 0.0 0.00 0.00 0.00 51 1005.3
20260509000229 51 312 0.0 0.0 0.00 0.00 0.00 50 1005.3
20260508235728 51 312 0.0 0.0 0.00 0.00 0.00 50 1005.4
20260508235217 51 312 0.0 6.0 0.00 0.00 0.00 50 1005.4
20260508234733 51 312 4.0 6.0 0.00 0.00 0.00 49 1005.5
20260508234221 51 312 4.0 8.0 0.00 0.00 0.00 50 1005.5
20260508233716 51 312 5.0 8.0 0.00 0.00 0.00 50 1005.6
20260508233233 51 312 4.0 6.0 0.00 0.00 0.00 49 1005.6
20260508232731 51 312 3.0 6.0 0.00 0.00 0.00 49 1005.6
20260508232235 52 312 3.0 8.0 0.00 0.00 0.00 50 1005.6
20260508231744 52 312 5.0 8.0 0.00 0.00 0.00 49 1005.7